Location: Bishopstone
(51.0167°N, 1.9000°W)
Time: 11:32:42
(UTC+00:00)

In-Cosmos 22 - Pass Details

Date: 16 September 2019
Orbit: 785 x 877 km, 81.2° (Epoch: 15 October)

Event Time Altitude Azimuth Distance (km) Brightness Sun altitude
Rises 20:15:24 0° 346° (NNW) 3,296 7.9 -18.1°
Reaches altitude 10° 20:17:45 10° 345° (NNW) 2,369 7.1 -18.4°
Maximum altitude 20:23:06 79° 260° (W) 822 4.2 -19.1°
Enters shadow 20:27:04 19° 176° (S) 1,856 5.7 -19.7°
